[[{"header":{"parameterUnit":"m.s-1","parameterCategory":1,"la1":30.2991,"la2":30.254,"lo1":-89.0895,"lo2":-89.0444,"dy":0.0017,"dx":0.0017,"nx":28,"ny":28,"refTime":"2024-05-13T21:00:00:Z","depth":0,"parameterNumber":2,"parameterNumberName":"U-component_of_WINDS"},"data":[0,0,0,0,0,0,0,0,0,0,0,0,0,0,0,0,0,0,0,0,0,0,0,0,0,0,0,0,0,0,0,0,0,0,0,0,0,0,0,0,0,0,0,0,0,0,0,0,0,0,0,0,0,0,0,0,0,0,1.3921,1.3921,0,1.3926,1.3926,1.3926,1.3879,1.3878,1.3876,1.3875,1.3885,1.3887,1.3888,0,0,0,0,0,0,0,0,0,0,0,0,0,1.3879,1.388,1.3921,1.3921,1.3921,1.3926,1.3926,1.3926,1.3879,1.3878,1.3876,1.3874,1.3885,1.3886,1.3888,0,0,0,0,0,0,0,0,0,0,0,0,0,1.3892,1.388,1.3921,1.3899,1.3896,1.3926,1.3926,1.3926,1.3879,1.3877,1.3876,1.3874,1.3884,1.3886,1.3888,1.3941,0,0,1.3895,1.3896,0,0,0,0,0,0,0,0,1.3891,1.3894,1.3902,1.39,1.3898,1.39,1.3914,1.3931,1.388,1.3886,1.3875,1.3873,1.3892,1.3893,1.3899,1.3942,1.3942,1.3895,1.3897,1.3898,1.3898,0,0,0,0,0,0,0,1.389,1.3893,1.3923,1.3902,1.39,1.389,1.389,1.3917,1.39,1.3885,1.3882,1.3883,1.3891,1.3897,1.3899,1.3942,1.3895,1.3897,1.3899,1.39,1.4031,1.4033,0,0,0,0,0,0,1.3892,1.3893,1.3923,1.3923,1.389,1.3893,1.3892,1.3901,1.39,1.3897,1.3885,1.3881,1.3894,1.3896,1.3899,1.3961,1.3898,1.39,1.3901,1.4029,1.4031,1.4034,0,0,0,0,0,0,1.3891,1.3895,1.3923,1.3907,1.391,1.3895,1.3906,1.3902,1.3908,1.3899,1.3896,1.3893,1.3892,1.3896,1.3931,1.3961,1.3901,1.3903,1.4026,1.403,1.4033,1.4086,0,0,0,0,0,0,1.389,1.3895,1.3913,1.3908,1.3911,1.3953,1.3908,1.3904,1.3911,1.3906,1.3907,1.3905,1.3891,1.3928,1.3933,1.3963,1.3905,1.4023,1.4028,1.4032,1.4081,1.409,1.4098,0,0,0,0,0,1.3889,1.3929,1.3914,1.3918,1.3933,1.3955,1.3957,1.3939,1.3914,1.3933,1.3928,1.3905,1.3957,1.3932,1.3938,1.3968,1.4022,1.4027,1.4031,1.4077,1.4089,1.4098,0,0,0,0,0,0,1.394,1.3928,1.3911,1.3951,1.3954,1.3947,1.397,1.3951,1.3963,1.3958,1.3936,1.3937,1.3976,1.3976,1.3948,1.402,1.3985,1.3991,1.4018,1.4029,1.4037,1.4036,1.3906,0,0,0,0,0,1.3956,1.3972,1.3962,1.3998,1.4,1.3985,1.3994,1.398,1.3983,1.3985,1.3981,1.3987,1.4005,1.4017,1.4033,1.4081,1.4082,1.4105,1.4114,1.4121,1.4126,1.4153,1.4164,1.405,1.405,1.4049,0,0,1.3988,1.3984,1.3996,1.4008,1.4008,1.4028,1.3987,1.4009,1.4024,1.3989,1.4021,1.402,1.4025,1.4067,1.4086,1.4068,1.4158,1.4127,1.4133,1.4134,1.4159,1.417,1.418,1.4053,1.4052,1.4052,0,0,1.4058,1.4056,1.4086,1.4087,1.4089,1.4079,1.4086,1.4082,1.4079,1.4111,1.4085,1.4105,1.4135,1.414,1.4147,1.422,1.42,1.4227,1.4271,1.4297,1.4306,1.4314,1.4341,1.4351,1.4232,1.4232,1.4232,0,1.4099,1.4126,1.4104,1.4128,1.4135,1.4102,1.4134,1.4137,1.4145,1.4151,1.4131,1.4169,1.417,1.4214,1.4232,1.4238,1.4247,1.4226,1.4306,1.4314,1.4321,1.4346,1.4357,1.4235,1.4235,1.4235,1.4234,0,1.4177,1.4196,1.422,1.4226,1.4236,1.4264,1.4248,1.4261,1.4247,1.424,1.4274,1.4275,1.429,1.43,1.4287,1.4343,1.4332,1.4309,1.4274,1.4335,1.4359,1.4368,1.424,1.4239,1.4238,1.4237,0,0,1.4277,1.4271,1.4281,1.4283,1.4283,1.4299,1.4327,1.434,1.4352,1.4359,1.4382,1.441,1.4389,1.4397,1.4385,1.4408,1.4467,1.4383,1.4383,1.4399,1.453,1.4546,1.4558,1.4454,1.4456,1.4457,1.4529,0,1.4345,1.4389,1.4371,1.4417,1.4436,1.4406,1.4431,1.4435,1.443,1.4446,1.4442,1.4461,1.4432,1.4437,1.4459,1.4455,1.4493,1.445,1.4477,1.4479,1.4476,1.457,1.4587,1.4655,1.4539,1.454,1.4541,0,1.4429,1.4438,1.4486,1.4483,1.449,1.4512,1.4524,1.454,1.4545,1.4539,1.4549,1.4531,1.4561,1.4526,1.4567,1.4538,1.4548,1.4549,1.4551,1.4552,1.4513,1.4574,1.4676,1.4686,1.4555,1.4554,1.4553,0,1.4498,1.4522,1.4554,1.4557,1.4555,1.4571,1.4572,1.4574,1.4584,1.4596,1.4602,1.4618,1.4626,1.464,1.4628,1.4604,1.4672,1.4636,1.467,1.467,1.4685,1.4684,1.479,1.4692,1.4692,1.4692,1.4692,0,1.4575,1.4606,1.4585,1.4604,1.4638,1.4619,1.4654,1.4652,1.4655,1.4675,1.4652,1.4672,1.4655,1.4675,1.4666,1.4702,1.4707,1.4705,1.4702,1.4706,1.4707,1.4713,1.4708,1.4695,1.4694,1.4694,1.4693,0,1.4657,1.4644,1.4677,1.4672,1.4672,1.4697,1.4695,1.4714,1.4707,1.4734,1.4739,1.473,1.4751,1.4741,1.4765,1.4759,1.4805,1.4797,1.4803,1.4801,1.4835,1.4832,1.4949,1.4963,1.4857,1.4858,1.4859,0,1.4707,1.4729,1.4727,1.4738,1.4739,1.4758,1.4767,1.475,1.4762,1.477,1.4789,1.4808,1.4822,1.4859,1.4856,1.4874,1.4866,1.4906,1.4869,1.4873,1.4867,1.4865,1.4868,1.4913,1.4914,1.4915,1.4916,0,1.4797,1.4789,1.4803,1.4815,1.4827,1.4836,1.4843,1.4854,1.4838,1.4853,1.4873,1.4885,1.4908,1.4928,1.4945,1.4948,1.493,1.4928,1.4937,1.4941,1.4944,1.4943,1.4823,1.4925,1.4924,1.4923,1.4923,1.4923,1.4864,1.4883,1.4884,1.4901,1.4904,1.4912,1.493,1.4926,1.4942,1.4958,1.4949,1.4974,1.498,1.5,1.5006,1.5027,1.5011,1.5024,1.5027,1.5031,1.5035,1.4941,1.503,1.503,1.5029,1.5029,1.5029,0,1.4952,1.4952,1.4967,1.4978,1.4992,1.4972,1.498,1.4993,1.5015,1.5021,1.5036,1.5061,1.5081,1.508,1.5099,1.5116,1.5109,1.5122,1.512,1.5122,1.5048,1.5038,1.5128,1.5128,1.5128,1.5128,1.5128,1.5128,1.5,1.5031,1.5024,1.5058,1.5058,1.5081,1.5087,1.5095,1.51,1.5129,1.5144,1.5143,1.5147,1.5167,1.5185,1.5184,1.5193,1.5209,1.5206,1.5137,1.5127,1.5117,1.5108,1.5211,1.5211,1.5278,1.5278,1.5279]},{"header":{"parameterUnit":"m.s-1","parameterCategory":1,"la1":30.2991,"la2":30.254,"lo1":-89.0895,"lo2":-89.0444,"dy":0.0017,"dx":0.0017,"nx":28,"ny":28,"refTime":"2024-05-13T21:00:00:Z","depth":0,"parameterNumber":3,"parameterNumberName":"V-component_of_WINDS"},"data":[0,0,0,0,0,0,0,0,0,0,0,0,0,0,0,0,0,0,0,0,0,0,0,0,0,0,0,0,0,0,0,0,0,0,0,0,0,0,0,0,0,0,0,0,0,0,0,0,0,0,0,0,0,0,0,0,0,0,-0.8518,-0.852,0,-0.8719,-0.8721,-0.8723,-0.878,-0.8779,-0.8777,-0.8776,-0.8988,-0.8994,-0.9001,0,0,0,0,0,0,0,0,0,0,0,0,0,-0.8191,-0.8196,-0.8518,-0.8521,-0.8523,-0.8718,-0.8721,-0.8724,-0.878,-0.8778,-0.8777,-0.8776,-0.8986,-0.8993,-0.9001,0,0,0,0,0,0,0,0,0,0,0,0,0,-0.8356,-0.8198,-0.8518,-0.8574,-0.8582,-0.8718,-0.8721,-0.8725,-0.878,-0.8778,-0.8777,-0.8775,-0.8983,-0.8993,-0.9003,-0.9099,0,0,-0.9033,-0.9038,0,0,0,0,0,0,0,0,-0.8347,-0.8368,-0.8564,-0.8571,-0.8579,-0.8722,-0.8683,-0.885,-0.8781,-0.8705,-0.8776,-0.8774,-0.8901,-0.8918,-0.8959,-0.9108,-0.9118,-0.9034,-0.904,-0.9045,-0.9047,0,0,0,0,0,0,0,-0.8335,-0.836,-0.8598,-0.8566,-0.8576,-0.8592,-0.8614,-0.8715,-0.881,-0.8711,-0.8716,-0.8739,-0.8905,-0.895,-0.8965,-0.9121,-0.9034,-0.9043,-0.9049,-0.9053,-0.936,-0.9362,0,0,0,0,0,0,-0.8313,-0.835,-0.8591,-0.8604,-0.8456,-0.8599,-0.8624,-0.8678,-0.8809,-0.8828,-0.874,-0.874,-0.8933,-0.8953,-0.8972,-0.9094,-0.9044,-0.9054,-0.906,-0.9358,-0.9361,-0.9363,0,0,0,0,0,0,-0.8306,-0.8334,-0.8583,-0.8478,-0.8511,-0.8607,-0.8668,-0.8683,-0.8727,-0.8831,-0.8849,-0.8767,-0.8933,-0.8958,-0.9067,-0.9102,-0.9058,-0.9067,-0.9355,-0.9359,-0.9362,-0.9338,0,0,0,0,0,0,-0.8296,-0.8331,-0.8367,-0.8478,-0.8516,-0.8672,-0.867,-0.8688,-0.8744,-0.8747,-0.8861,-0.8879,-0.8933,-0.9051,-0.9077,-0.9115,-0.9075,-0.9353,-0.9357,-0.9361,-0.9336,-0.934,-0.9343,0,0,0,0,0,-0.8284,-0.8353,-0.8368,-0.8397,-0.8563,-0.8674,-0.8696,-0.8756,-0.8746,-0.8784,-0.8851,-0.8875,-0.9094,-0.9062,-0.9091,-0.9133,-0.9351,-0.9356,-0.936,-0.9334,-0.9339,-0.9343,0,0,0,0,0,0,-0.8246,-0.8369,-0.8387,-0.8494,-0.8573,-0.8683,-0.8733,-0.8759,-0.8843,-0.8843,-0.8915,-0.8941,-0.9044,-0.91,-0.9062,-0.9234,-0.9223,-0.9234,-0.9193,-0.9199,-0.9202,-0.9187,-0.9084,0,0,0,0,0,-0.8249,-0.8327,-0.8432,-0.8516,-0.8554,-0.8636,-0.8687,-0.8726,-0.8812,-0.8846,-0.892,-0.9004,-0.9092,-0.9149,-0.9235,-0.9344,-0.9371,-0.9388,-0.9391,-0.9394,-0.9402,-0.9466,-0.9475,-0.9379,-0.9379,-0.9379,0,0,-0.8259,-0.8336,-0.8381,-0.851,-0.8576,-0.8657,-0.8664,-0.875,-0.8811,-0.886,-0.8966,-0.9024,-0.9122,-0.9231,-0.9283,-0.9281,-0.9435,-0.94,-0.9401,-0.9409,-0.9471,-0.948,-0.9488,-0.9382,-0.9381,-0.9381,0,0,-0.8317,-0.8382,-0.846,-0.8525,-0.8623,-0.8677,-0.8696,-0.8803,-0.8842,-0.895,-0.8988,-0.9063,-0.9212,-0.9281,-0.9336,-0.9419,-0.9445,-0.9446,-0.9465,-0.9526,-0.9533,-0.954,-0.9572,-0.9582,-0.9454,-0.9454,-0.9454,0,-0.8316,-0.8437,-0.8497,-0.858,-0.8637,-0.8682,-0.8763,-0.8824,-0.8946,-0.8985,-0.898,-0.9169,-0.9239,-0.9365,-0.9385,-0.9427,-0.9452,-0.9433,-0.9527,-0.9535,-0.9542,-0.9573,-0.9584,-0.9453,-0.9454,-0.9454,-0.9454,0,-0.8433,-0.8516,-0.8568,-0.8682,-0.8745,-0.8826,-0.89,-0.8956,-0.899,-0.9045,-0.9155,-0.924,-0.9344,-0.9377,-0.9412,-0.9509,-0.9505,-0.9512,-0.9504,-0.955,-0.958,-0.9592,-0.9453,-0.9453,-0.9453,-0.9453,0,0,-0.8473,-0.8618,-0.8637,-0.8689,-0.8801,-0.8868,-0.8953,-0.9053,-0.91,-0.9184,-0.9257,-0.9382,-0.939,-0.9452,-0.9495,-0.9548,-0.961,-0.955,-0.9553,-0.9559,-0.9724,-0.9718,-0.973,-0.9627,-0.963,-0.9632,-0.9716,0,-0.8546,-0.8695,-0.8751,-0.8875,-0.8953,-0.8998,-0.9071,-0.9149,-0.9203,-0.928,-0.9341,-0.9428,-0.9432,-0.9469,-0.9524,-0.9591,-0.9644,-0.9585,-0.9699,-0.9702,-0.9673,-0.9746,-0.974,-0.9815,-0.9728,-0.973,-0.9732,0,-0.8651,-0.8732,-0.8863,-0.8965,-0.9,-0.9065,-0.9162,-0.9234,-0.9324,-0.936,-0.9428,-0.9467,-0.9559,-0.9544,-0.9673,-0.9631,-0.9681,-0.9721,-0.9726,-0.974,-0.972,-0.9763,-0.9841,-0.9852,-0.9751,-0.9749,-0.9748,0,-0.8668,-0.8811,-0.8908,-0.8951,-0.9073,-0.9118,-0.9171,-0.9259,-0.9316,-0.9401,-0.9439,-0.9535,-0.9587,-0.9661,-0.9726,-0.9709,-0.985,-0.9839,-0.9884,-0.9882,-0.9913,-0.991,-1.0,-0.9943,-0.9942,-0.9942,-0.9942,0,-0.8744,-0.8822,-0.8917,-0.8976,-0.9066,-0.9131,-0.9219,-0.9275,-0.9353,-0.9426,-0.9471,-0.9539,-0.962,-0.9699,-0.975,-0.985,-0.9873,-0.9907,-0.9919,-0.9903,-0.9899,-0.9938,-0.9935,-0.9945,-0.9945,-0.9944,-0.9943,0,-0.8779,-0.8845,-0.8953,-0.9059,-0.9087,-0.9149,-0.9241,-0.9301,-0.9357,-0.9449,-0.9474,-0.9563,-0.9658,-0.9729,-0.9854,-0.9889,-0.9995,-1.0008,-0.9964,-0.9971,-1.0012,-1.0007,-1.0131,-1.0152,-1.0078,-1.0079,-1.008,0,-0.8823,-0.8884,-0.8995,-0.9046,-0.9098,-0.918,-0.9238,-0.9304,-0.9363,-0.947,-0.9518,-0.9616,-0.9698,-0.9849,-0.9926,-1.0022,-1.0038,-1.0075,-1.0053,-1.0035,-1.004,-1.0036,-1.0043,-1.0078,-1.0079,-1.0079,-1.0079,0,-0.8895,-0.8925,-0.9005,-0.9097,-0.9164,-0.924,-0.9317,-0.9357,-0.9438,-0.9502,-0.9599,-0.9662,-0.9788,-0.9886,-0.9989,-1.0047,-1.0078,-1.0085,-1.0101,-1.0086,-1.0058,-1.0075,-0.9974,-1.0083,-1.0082,-1.0082,-1.0082,-1.0082,-0.8938,-0.8994,-0.9081,-0.9169,-0.9233,-0.9304,-0.9367,-0.9429,-0.951,-0.9616,-0.9651,-0.9752,-0.9842,-0.9983,-1.0042,-1.0123,-1.0123,-1.0145,-1.0151,-1.0156,-1.0155,-1.0043,-1.0142,-1.0142,-1.0142,-1.0142,-1.0142,0,-0.9013,-0.9071,-0.9151,-0.9256,-0.9326,-0.9346,-0.9432,-0.949,-0.9577,-0.9657,-0.9736,-0.9849,-0.9943,-1.0027,-1.0126,-1.0175,-1.0192,-1.0199,-1.0197,-1.021,-1.0149,-1.0126,-1.0184,-1.0184,-1.0184,-1.0184,-1.0184,-1.0184,-0.906,-0.9157,-0.9197,-0.9327,-0.9385,-0.9482,-0.953,-0.9597,-0.9661,-0.9783,-0.9861,-0.9914,-0.9996,-1.0102,-1.019,-1.0213,-1.0248,-1.0252,-1.0278,-1.0219,-1.0214,-1.021,-1.0188,-1.0259,-1.0259,-1.0333,-1.0333,-1.0334]}]]